Wind_Speed
61 60 59 57 55 53 52 51 50 49 49 48 47 45 44 44 44 45 44 43 42 41 40 39 37 36 34 35 37 38 38 36 33 31 30 28 29 29 29 29 29 29
61 60 60 60 58 57 54 52 51 50 50 49 49 48 47 46 46 46 46 45 44 42 42 42 41 39 37 35 36 38 39 39 36 33 32 29 29 29 29 29 30 29
61 61 60 60 59 58 57 56 54 53 52 51 51 50 49 48 48 47 47 47 46 44 43 44 44 43 41 39 38 38 38 41 40 37 34 31 29 28 29 29 29 30
63 63 62 62 60 59 59 58 57 56 55 55 54 54 53 52 51 50 50 50 49 46 45 45 45 45 44 42 41 40 38 40 43 41 37 33 31 29 29 29 29 30
64 64 64 64 62 60 59 59 59 58 58 58 58 58 57 56 55 53 52 52 52 51 48 47 47 48 47 45 45 43 41 40 43 44 40 35 34 32 30 30 29 30
66 67 66 65 63 61 61 61 61 62 62 62 62 61 60 58 57 57 55 53 54 55 53 51 50 50 50 49 48 47 44 42 43 45 44 39 36 34 33 31 30 30
70 70 69 67 65 64 64 65 65 65 65 65 64 62 61 59 59 60 60 58 57 57 57 55 53 53 54 54 53 50 49 47 45 45 46 42 39 37 35 32 31 30
71 71 70 70 68 68 68 68 68 67 66 65 64 63 62 61 61 62 63 63 61 60 60 59 58 58 59 59 58 55 53 51 49 47 47 46 43 39 37 34 32 32
72 72 72 72 71 71 70 69 68 67 65 64 64 64 63 63 63 64 66 67 67 67 67 67 67 66 65 65 64 61 57 54 53 49 48 49 46 41 39 36 34 33
73 72 72 72 72 71 70 68 67 67 66 66 65 65 67 69 70 71 73 74 75 76 77 76 75 74 72 70 69 67 62 58 56 53 50 51 49 44 41 39 35 34
74 73 73 72 71 70 69 69 68 68 68 69 70 71 73 75 78 79 81 82 83 84 84 84 83 82 80 77 74 71 68 63 60 56 52 52 51 47 43 41 37 34
74 73 71 70 69 69 70 70 70 71 72 73 75 76 78 80 82 83 83 83 84 84 84 83 82 83 85 85 81 77 73 68 64 59 54 52 52 50 46 43 38 35
72 70 69 69 68 69 69 70 71 72 73 74 75 76 78 79 78 76 74 74 73 73 74 74 73 73 79 85 86 82 78 72 67 62 56 52 52 51 48 44 40 37
71 70 70 69 68 68 68 68 68 69 69 71 72 73 72 71 69 67 66 66 65 64 65 66 66 65 69 78 83 84 81 76 70 64 59 54 52 52 49 45 41 38
71 71 71 71 70 68 67 66 65 66 67 68 69 69 68 67 67 66 65 64 62 59 59 61 62 62 65 71 77 81 82 78 73 66 60 55 52 50 50 46 42 39
71 71 71 70 69 68 67 66 66 66 67 68 69 70 69 69 69 68 66 64 61 57 56 57 59 61 64 68 72 77 79 79 75 68 60 56 52 50 50 47 43 40
70 70 69 68 68 68 68 69 68 68 68 70 72 72 72 71 69 68 66 64 61 57 53 54 58 61 63 67 71 74 77 77 75 68 60 57 54 51 50 48 45 41
69 69 69 69 70 71 72 72 72 72 73 74 74 73 72 70 69 67 66 63 62 57 52 52 57 61 63 67 71 74 76 76 73 67 61 58 55 52 50 49 46 42
71 71 72 72 74 75 76 76 78 78 77 76 74 71 70 68 67 66 65 63 61 57 52 51 55 59 62 67 72 74 75 74 72 67 62 58 56 53 51 50 47 43
74 75 76 77 78 79 80 81 80 77 74 71 68 66 65 64 63 63 62 61 60 58 54 51 53 56 60 68 73 75 75 74 72 68 64 60 57 54 52 50 48 44
78 79 79 79 79 78 77 74 71 67 63 61 60 60 59 59 59 59 58 57 57 58 56 53 51 54 60 68 74 75 75 74 72 69 64 61 58 54 52 51 49 45
76 75 74 72 69 66 63 60 57 55 54 54 55 54 54 54 54 53 52 52 54 58 58 54 51 52 59 69 75 76 76 75 72 69 64 59 56 54 53 52 49 46
66 64 62 59 56 53 51 49 49 48 48 49 50 50 50 51 50 49 48 48 50 57 59 55 51 53 61 70 76 77 77 75 72 69 63 57 54 54 54 52 50 48
54 53 51 49 46 45 45 44 44 44 45 46 48 49 49 49 50 50 50 49 49 54 59 57 52 55 64 72 77 78 78 75 72 69 64 58 53 53 54 53 50 48
48 47 45 43 42 41 41 41 41 41 42 45 48 49 49 50 51 53 54 53 51 54 58 57 54 59 68 75 79 80 79 75 72 68 63 57 53 53 54 54 51 49
45 44 42 39 38 38 39 40 41 43 45 47 49 50 50 50 51 52 53 52 52 54 56 55 56 64 73 78 80 80 77 74 70 66 60 55 52 53 55 54 51 49
Wind_Direction
295 295 295 294 293 290 287 284 282 282 282 281 280 279 278 278 277 278 279 279 280 281 282 282 282 282 284 282 274 265 263 265 267 267 265 265 267 264 257 253 247 237
294 295 295 294 293 291 288 285 283 281 281 280 279 278 277 276 275 274 275 275 276 277 279 280 280 280 279 280 279 272 264 262 263 264 263 261 262 262 258 253 251 245
293 294 294 294 292 289 287 285 283 282 281 280 278 277 276 275 274 272 272 272 273 273 274 275 276 278 278 277 278 277 270 262 260 261 260 258 258 259 258 253 250 249
292 293 293 293 290 287 285 283 282 282 281 280 279 277 275 274 273 271 270 269 269 269 269 271 272 274 275 275 275 276 274 266 260 258 257 255 254 255 256 254 251 248
292 292 292 291 289 285 283 281 280 280 280 280 279 277 275 273 272 270 269 268 266 265 264 265 268 270 271 272 273 273 273 269 262 257 254 252 251 252 253 254 253 250
292 292 290 289 287 285 283 281 280 279 278 278 278 276 274 271 270 269 268 267 266 264 262 259 261 265 267 268 269 269 269 268 265 258 252 249 248 249 251 252 253 251
293 292 290 288 286 285 284 282 281 279 277 277 276 275 273 270 268 267 266 267 265 264 262 258 256 259 263 265 265 266 266 266 265 260 253 248 247 247 250 250 249 250
292 290 289 288 286 285 284 282 281 279 277 276 275 273 272 270 268 266 265 265 264 263 262 259 256 256 258 261 262 262 262 263 263 261 254 249 246 246 248 248 246 246
289 288 287 286 285 284 282 280 278 276 275 274 273 271 270 269 267 265 263 263 262 261 259 257 256 255 253 255 257 258 258 258 259 259 254 247 243 243 245 245 243 243
287 287 286 285 284 283 281 278 276 275 274 272 271 270 269 268 266 264 263 262 261 260 257 254 253 252 251 249 251 253 254 254 254 255 252 246 241 240 241 240 240 239
288 288 287 285 283 281 280 279 277 276 275 274 273 271 270 269 269 268 267 265 264 262 260 256 252 250 248 246 246 248 250 250 250 251 250 245 240 237 237 237 237 236
289 288 286 285 283 282 281 280 280 279 279 278 276 275 274 273 273 272 271 268 267 265 263 260 255 249 246 244 243 243 245 246 246 246 245 242 237 235 235 235 235 232
288 287 285 284 283 282 282 282 282 281 281 279 279 278 277 276 275 274 274 271 269 266 263 260 255 248 242 240 239 239 240 241 242 242 243 240 235 232 232 234 233 230
287 285 284 283 283 282 282 283 283 282 281 281 280 279 278 278 277 277 277 276 271 266 260 256 250 243 237 235 234 235 236 237 237 237 238 237 233 230 230 231 232 229
286 285 284 284 284 283 283 283 283 282 282 282 281 280 279 279 279 279 279 277 272 265 258 252 244 237 231 229 229 230 231 232 232 233 233 233 231 228 227 229 231 229
286 285 285 285 285 285 284 283 283 282 282 281 280 279 278 278 278 278 278 276 271 264 257 249 239 230 225 223 223 224 226 227 228 228 229 231 230 227 224 225 228 227
287 286 286 286 285 286 285 284 283 282 281 280 278 277 276 275 275 275 274 272 268 262 256 247 235 225 220 217 217 219 220 222 223 224 226 228 228 226 223 223 224 225
288 287 287 287 287 287 286 285 283 282 280 278 277 275 273 272 271 270 269 267 264 259 254 245 232 223 217 213 212 214 216 218 220 221 222 225 225 223 221 221 222 222
289 289 288 288 287 286 285 283 282 280 279 277 275 272 270 268 268 267 266 265 260 253 249 242 231 222 215 209 208 210 211 214 216 217 219 222 222 221 220 219 220 220
290 289 288 287 285 283 282 281 280 279 277 275 272 269 267 266 266 265 265 264 256 247 244 240 230 221 214 207 205 206 207 210 213 214 216 219 220 219 217 216 217 218
288 287 286 285 284 282 281 281 280 278 275 272 269 267 266 266 265 264 264 261 251 241 239 237 228 220 212 205 201 202 204 208 211 213 215 216 217 216 214 213 214 216
289 288 287 286 285 284 282 281 278 276 273 270 268 268 266 265 264 262 260 256 246 237 236 234 226 218 210 203 198 198 202 206 209 211 212 213 214 213 211 210 211 213
291 290 289 288 287 285 282 280 278 276 274 272 270 268 266 264 262 258 255 253 244 235 234 232 224 215 208 200 195 196 200 204 208 210 209 209 210 210 208 208 209 210
293 293 292 290 287 285 283 281 279 277 275 273 271 269 266 264 261 257 252 249 242 235 233 230 221 212 204 196 192 194 198 202 206 208 207 206 207 207 205 205 207 208
296 296 295 292 289 287 285 284 282 280 277 275 272 270 268 265 261 257 252 246 240 234 230 226 217 207 199 192 189 192 197 200 205 207 205 204 205 204 202 203 205 207
298 298 296 294 291 289 288 287 285 283 280 277 274 272 269 266 261 258 252 245 236 230 226 221 212 202 194 188 187 191 195 199 203 204 204 204 204 203 202 201 202 205
Height
5732 5732 5732 5732 5732 5733 5733 5733 5732 5732 5731 5731 5732 5732 5733 5733 5733 5733 5734 5734 5735 5735 5736 5736 5737 5737 5738 5738 5739 5741 5743 5744 5745 5745 5746 5747 5748 5748 5749 5750 5751 5751
5725 5724 5723 5722 5722 5723 5723 5723 5724 5724 5724 5724 5724 5725 5726 5726 5727 5727 5728 5728 5729 5730 5730 5730 5731 5732 5733 5734 5734 5736 5738 5739 5741 5741 5742 5743 5744 5744 5745 5746 5748 5749
5716 5716 5715 5714 5714 5713 5713 5713 5713 5714 5715 5715 5716 5717 5718 5718 5719 5720 5721 5722 5723 5723 5724 5724 5725 5726 5728 5729 5729 5730 5732 5734 5736 5737 5737 5739 5740 5741 5742 5743 5744 5745
5707 5707 5706 5706 5705 5705 5704 5704 5704 5704 5705 5705 5706 5708 5709 5710 5711 5713 5714 5715 5716 5717 5718 5718 5719 5720 5722 5723 5724 5725 5727 5729 5730 5732 5733 5735 5736 5737 5738 5739 5740 5741
5699 5698 5697 5697 5696 5696 5695 5695 5695 5695 5695 5696 5696 5698 5699 5701 5702 5704 5706 5707 5708 5710 5711 5712 5713 5714 5715 5717 5718 5720 5722 5723 5724 5726 5728 5730 5731 5732 5733 5735 5737 5738
5689 5688 5688 5687 5686 5686 5686 5686 5686 5686 5687 5687 5687 5688 5689 5691 5693 5694 5696 5699 5700 5701 5704 5706 5706 5707 5708 5710 5712 5714 5716 5718 5719 5720 5722 5725 5727 5728 5729 5730 5733 5734
5677 5676 5676 5676 5676 5675 5675 5675 5675 5676 5676 5677 5677 5677 5678 5681 5683 5685 5687 5689 5691 5692 5695 5697 5699 5700 5701 5703 5705 5707 5710 5712 5714 5714 5716 5720 5722 5723 5725 5726 5728 5729
5667 5666 5664 5664 5664 5664 5664 5663 5663 5663 5664 5665 5666 5666 5667 5669 5672 5674 5676 5679 5681 5683 5685 5688 5691 5693 5695 5695 5697 5700 5703 5706 5708 5709 5711 5714 5716 5719 5720 5721 5723 5724
5658 5656 5654 5653 5653 5653 5653 5652 5652 5651 5652 5653 5654 5654 5655 5657 5660 5663 5665 5667 5670 5673 5675 5678 5680 5684 5687 5688 5689 5692 5696 5699 5701 5703 5705 5707 5710 5713 5715 5716 5717 5719
5647 5646 5644 5643 5641 5640 5640 5640 5639 5639 5640 5640 5642 5643 5643 5644 5646 5649 5651 5653 5656 5659 5662 5665 5668 5672 5675 5678 5680 5683 5687 5691 5694 5696 5698 5700 5704 5707 5709 5710 5712 5715
5636 5633 5631 5630 5629 5628 5628 5627 5627 5627 5627 5627 5629 5630 5630 5630 5631 5633 5635 5637 5639 5642 5645 5649 5654 5658 5662 5666 5670 5673 5677 5682 5686 5689 5691 5694 5697 5701 5703 5705 5707 5710
5623 5621 5619 5617 5617 5616 5616 5615 5615 5614 5614 5615 5615 5615 5616 5616 5615 5615 5616 5618 5620 5622 5624 5628 5634 5640 5645 5650 5657 5662 5666 5672 5677 5681 5684 5687 5691 5694 5697 5700 5703 5705
5611 5609 5607 5606 5605 5604 5603 5603 5603 5602 5602 5602 5601 5601 5601 5601 5600 5599 5599 5600 5602 5604 5606 5608 5613 5620 5626 5633 5642 5649 5655 5661 5667 5673 5677 5680 5684 5688 5691 5695 5698 5699
5599 5597 5595 5594 5593 5592 5592 5591 5591 5590 5589 5589 5588 5587 5587 5586 5585 5585 5585 5585 5586 5588 5590 5592 5596 5603 5610 5617 5627 5636 5643 5650 5658 5664 5669 5672 5676 5681 5685 5689 5692 5694
5586 5584 5583 5582 5581 5580 5580 5579 5579 5577 5576 5575 5574 5574 5574 5573 5571 5571 5572 5572 5573 5574 5576 5578 5582 5589 5596 5604 5613 5623 5631 5639 5647 5654 5660 5664 5669 5674 5678 5683 5687 5690
5575 5573 5572 5570 5569 5568 5567 5566 5566 5564 5563 5561 5560 5560 5560 5559 5558 5558 5559 5560 5561 5562 5564 5566 5570 5576 5583 5592 5601 5610 5619 5628 5637 5645 5651 5657 5662 5667 5671 5676 5681 5684
5564 5562 5560 5558 5557 5555 5553 5552 5551 5550 5550 5548 5547 5546 5545 5545 5545 5546 5547 5548 5548 5550 5553 5555 5558 5564 5572 5580 5589 5599 5608 5618 5627 5637 5644 5649 5654 5659 5664 5669 5674 5679
5551 5549 5547 5546 5543 5541 5538 5536 5535 5535 5535 5534 5532 5532 5531 5531 5532 5532 5534 5535 5536 5539 5542 5545 5548 5553 5561 5569 5578 5588 5598 5609 5619 5630 5637 5641 5646 5652 5658 5663 5668 5673
5539 5536 5534 5532 5529 5526 5523 5522 5520 5520 5520 5518 5517 5517 5516 5517 5518 5519 5521 5523 5525 5528 5532 5535 5538 5544 5550 5559 5568 5578 5590 5601 5611 5621 5628 5633 5638 5645 5652 5657 5663 5667
5526 5522 5519 5517 5514 5511 5508 5507 5505 5504 5504 5503 5502 5502 5503 5504 5506 5507 5509 5511 5513 5517 5521 5524 5529 5535 5541 5549 5558 5570 5582 5593 5603 5612 5619 5624 5630 5637 5645 5652 5657 5662
5511 5507 5504 5502 5499 5496 5493 5492 5490 5489 5489 5488 5488 5489 5490 5492 5493 5495 5497 5499 5501 5505 5509 5514 5520 5527 5532 5539 5550 5563 5575 5585 5595 5603 5610 5617 5623 5630 5638 5645 5651 5656
5495 5491 5489 5487 5484 5482 5480 5479 5477 5476 5477 5476 5476 5477 5479 5480 5481 5483 5485 5487 5490 5494 5498 5503 5511 5518 5524 5532 5543 5555 5568 5578 5587 5596 5603 5610 5617 5624 5631 5639 5646 5651
5481 5478 5476 5474 5472 5470 5469 5468 5467 5466 5467 5466 5465 5467 5468 5469 5470 5472 5474 5476 5480 5484 5487 5494 5503 5510 5515 5524 5536 5548 5560 5571 5580 5589 5597 5604 5611 5618 5626 5633 5639 5645
5472 5468 5466 5465 5463 5461 5460 5459 5458 5458 5458 5457 5455 5456 5457 5459 5459 5461 5463 5466 5470 5474 5478 5484 5494 5501 5507 5516 5528 5541 5553 5565 5574 5582 5591 5598 5605 5612 5620 5628 5634 5640
5464 5462 5459 5457 5456 5454 5452 5451 5451 5450 5449 5447 5445 5445 5446 5447 5447 5447 5450 5455 5459 5463 5468 5475 5484 5492 5499 5509 5522 5535 5547 5559 5568 5577 5585 5593 5600 5607 5615 5622 5629 5635
5458 5455 5453 5451 5449 5448 5446 5444 5443 5441 5439 5437 5435 5433 5433 5433 5434 5435 5437 5443 5448 5452 5458 5466 5475 5484 5492 5503 5517 5530 5543 5554 5563 5573 5582 5589 5596 5603 5611 5618 5624 5630